Airfield :
LOGIN :

Register | Disclaimer

   EN    FR    IT 

 










Legend :    VFR   Marginal VFR   IFR   Intensive IFR   Very Intensive IFR
Visi :
Ceiling :
>= 8 km
>= 3000ft
5 to 8 km
1000 to 3000 ft
1500m to 5 km
500 to 1000 ft
800 to 1500m
200 to 500 ft
< 800m
< 200 ft
Symbols :   Thunderstorms  Fog  Heavy snow  Heavy precipitations  Wind > 20 kt
SIGMETs :     Misc.  Thunderstorms  Icing  Turbulence  Mountain Waves  Volcanic Ashes






- Airport Elevation : 270 ft
- IATA code : OXF


EGTK - Oxford (Kidlington)

CURRENT METAR :
  • 271750Z 00000KT 6000 NSC 09/08 Q1009

EXPIRED METARs :
  • 271720Z VRB02KT 8000 NSC 09/09 Q1009
  • 271650Z VRB01KT 7000 NSC 09/09 Q1009
  • 271620Z 18004KT 7000 SCT027 09/08 Q1009
  • 271550Z 18002KT 8000 SCT027 10/09 Q1010
  • 271520Z 22002KT 9000 OVC027 10/09 Q1010

TAF TAF EGTK
Valid from the 27 at 18:00 until the 27 at 22:00 UTC


271656Z 2718/2722 22004KT 9999 SCT030
PROB30
TEMPO 2718/2722 3000 BR



MET'MAP, your aeronautical weather chart ! - Copyright ORBIFLY December 2007 - Disclaimer

ORBIFLY MET'MAP TEAM :

Programming & Development : Alexandra Zaïnal
Original concept : Baudouin d'Aumeries
Technical & hardware support : Manuel Goepfert
Assistance : Marc-Olivier Méhu




SOURCES & CREDITS :

   NOAA